Location: Unspecified
(43.4680°N, 87.1740°E)
Time: 19:13:30
(UTC+00:00)

Cosmos 2218 Rocket - Pass Details

Date: 17 January 2020
Orbit: 956 x 1006 km, 82.9° (Epoch: 16 February)

Event Time Altitude Azimuth Distance (km) Brightness Sun altitude
Rises 13:01:56 0° 174° (S) 3,671 7.1 -21.3°
Reaches altitude 10° 13:04:27 10° 170° (S) 2,734 6.3 -21.8°
Maximum altitude 13:10:36 60° 92° (E) 1,132 4.0 -22.9°
Enters shadow 13:16:48 10° 15° (NNE) 2,761 6.2 -24.0°
Exits shadow 13:18:31 - 13° (NNE) 3,393 6.6 -24.3°
Sets 13:19:26 0° 12° (NNE) 3,739 6.9 -24.5°
